星链-34620 (STARLINK-34620)

导读

STARLINK-34620是美国太空探索技术公司(SpaceX)星链(Starlink)星座中的一颗卫星,于2025年7月16日由美国发射升空。星链项目旨在构建全球卫星互联网星座,为全球用户提供高速卫星互联网服务,STARLINK-34620加入星座后,进一步扩容了星链网络的服务覆盖与容量。

Basic Information
目录编号:
64803
目录名称:
STARLINK-34620
国际标识:
2025-150P
轨道中心:
EARTH
卫星名称:
星链-34620
卫星全名:
星链-34620 (STARLINK-34620)
卫星状态:
在轨 (已飞行332 天)
发射日期:
2025-07-16 UTC
国别 :
美国 (US)
星等 :
--
Orbit Information
数据来源 国际轨道数据 AOE轨道数据
星历时间 2026-06-13T23:06:43+0800
8小时前
查看轨道信息
2026-06-11T10:00:00+0800
2天前
查看轨道信息
半长轴 6950.179km 6950.169km
偏心率 0.0003522 0.0003295
轨道倾角 70.001° 70.000°
近地点辐角 268.832° 274.653°
升交点赤经 252.712° 259.130°
平近点角 91.243° 34.454°
近地点 569.594km 569.741km
远地点 574.49km 574.323km
周期 96.107分钟 96.106分钟
每日圈数 14.983347 14.983378
Detailed Information
固有亮度:
5
最大亮度:
2.5
卫星平台:
Starlink V1.0
覆盖范围:
全球
运营商:
太空探索技术公司
运营商所在国:
美国
制造商(研发单位):
太空探索技术公司
制造商所在国:
美国
使用方式:
暂无
Satellite Introduction
Starlink 计划是 SpaceX 推出的全球卫星互联网项目,通过发射低轨道卫星,为全球尤其是偏远地区提供高速、低延迟的互联网服务。自 2019 年起,Starlink 已部署数千颗卫星,旨在缩小全球数字鸿沟,推动互联网普及。该项目还为军事、航空等行业提供通信支持,带来广泛经济效益。
2D Orbit Map
3D Orbit Map
Orbit Altitude Analysis Chart
Orbit Inclination Analysis Chart
Orbit Comprehensive Analysis Chart
View Comprehensive Chart